This is the latest recevied weather packets stored in our database for station/object KB4RFE. If no packets are shown the sender has not sent any weather packets the latest 10 day(s).
| Time | Temp. | Humidity | Pressure | Rain* | Wind** | Luminosity | Snow |
|---|---|---|---|---|---|---|---|
| 1788394836 | 27.22° C | 87% | 1019.9 hPa | 0 mm | - | 0 W/m² | - |
| 1788394531 | 27.78° C | 86% | 1019.9 hPa | 0 mm | - | 0 W/m² | - |
| 1788394231 | 27.78° C | 85% | 1019.9 hPa | 0 mm | - | 0 W/m² | - |
| 1788393927 | 27.78° C | 84% | 1019.7 hPa | 0 mm | - | 0 W/m² | - |
| 1788393620 | 27.78° C | 83% | 1019.7 hPa | 0 mm | - | 0 W/m² | - |
| 1788393319 | 27.78° C | 83% | 1019.8 hPa | 0 mm | - | 0 W/m² | - |
| 1788393015 | 28.33° C | 83% | 1019.7 hPa | 0 mm | - | 1 W/m² | - |
| 1788392715 | 28.33° C | 82% | 1019.6 hPa | 0 mm | - | 2 W/m² | - |
| 1788392414 | 28.33° C | 82% | 1019.6 hPa | 0 mm | - | 4 W/m² | - |
| 1788392114 | 28.33° C | 82% | 1019.5 hPa | 0 mm | - | 7 W/m² | - |
| 1788391809 | 28.33° C | 81% | 1019.6 hPa | 0 mm | - | 8 W/m² | - |
| 1788391508 | 28.33° C | 80% | 1019.6 hPa | 0 mm | - | 14 W/m² | - |
| 1788391202 | 28.89° C | 79% | 1019.6 hPa | 0 mm | - | 12 W/m² | - |
| 1788390897 | 28.89° C | 80% | 1019.7 hPa | 0 mm | - | 22 W/m² | - |
| 1788390592 | 28.89° C | 79% | 1019.6 hPa | 0 mm | - | 26 W/m² | - |
| 1788390291 | 28.89° C | 79% | 1019.6 hPa | 0 mm | - | 29 W/m² | - |
| 1788389990 | 28.89° C | 79% | 1019.6 hPa | 0 mm | - | 33 W/m² | - |
| 1788389686 | 28.89° C | 78% | 1019.7 hPa | 0 mm | - | 37 W/m² | - |
| 1788389385 | 29.44° C | 77% | 1019.6 hPa | 0 mm | - | 40 W/m² | - |
| 1788389084 | 29.44° C | 76% | 1019.8 hPa | 0 mm | - | 43 W/m² | - |
| 1788388782 | 29.44° C | 78% | 1019.7 hPa | 0 mm | - | 45 W/m² | - |
| 1788388477 | 29.44° C | 75% | 1019.7 hPa | 0 mm | - | 48 W/m² | - |
| 1788388176 | 29.44° C | 77% | 1019.7 hPa | 0 mm | - | 50 W/m² | - |
| 1788387875 | 29.44° C | 75% | 1020 hPa | 0 mm | - | 53 W/m² | - |
| 1788387574 | 30° C | 75% | 1020 hPa | 0 mm | - | 55 W/m² | - |
* Rain latest hour (hover to see other rain measurements)
** Current wind speed in m/s (hover to see current wind gust speed)